User: anonymous   Login
Location: Mentone
(34.5413°N, 85.5351°W)
Time: 18:06:50
(UTC-05:00)
Language:

ADEOS Rocket - Orbit

View from above orbital plane
View from above orbital plane
View from above satellite
View from above satellite

Ground track
Ground track

The orbit data is extracted from the following two-line orbital elements,

1 24279U 96046C   16204.61799291 -.00000009 +00000-0 +32179-4 0  9992
2 24279 098.7042 184.0752 0301066 049.3282 077.4031 13.47054583979600
Epoch (UTC): 22 July 2016 14:49:54
Eccentricity: 0.0301066
inclination: 98.7042°
perigee height: 858 km
apogee height: 1308 km
right ascension of ascending node: 184.0752°
argument of perigee: 49.3282°
revolutions per day: 13.47054583
mean anomaly at epoch: 77.4031°
orbit number at epoch: 97960

The dashed part of the orbit path shows where the satellite is in the earth's shadow,  

DLR